This is the latest recevied weather packets stored in our database for station/object DB0WUN-13. If no packets are shown the sender has not sent any weather packets the latest 10 day(s).
| Time | Temp. | Humidity | Pressure | Rain* | Wind** | Luminosity | Snow |
|---|---|---|---|---|---|---|---|
| 1777355570 | 5.56° C | 79% | 1020.8 hPa | 0 mm | - | 213 W/m² | - |
| 1777355535 | 5° C | 80% | 1020.7 hPa | 0 mm | - | 214 W/m² | - |
| 1777355355 | 5° C | 80% | 1020.7 hPa | 0 mm | - | 209 W/m² | - |
| 1777355290 | 4.44° C | 80% | 1020.7 hPa | 0 mm | - | 207 W/m² | - |
| 1777355228 | 4.44° C | 81% | 1020.6 hPa | 0 mm | - | 214 W/m² | - |
| 1777355168 | 4.44° C | 81% | 1020.6 hPa | 0 mm | - | 216 W/m² | - |
| 1777355115 | 4.44° C | 81% | 1020.6 hPa | 0 mm | - | 218 W/m² | - |
| 1777355047 | 4.44° C | 81% | 1020.7 hPa | 0 mm | - | 214 W/m² | - |
| 1777354985 | 4.44° C | 81% | 1020.7 hPa | 0 mm | - | 211 W/m² | - |
| 1777354928 | 4.44° C | 82% | 1020.6 hPa | 0 mm | - | 220 W/m² | - |
| 1777354863 | 3.89° C | 82% | 1020.7 hPa | 0 mm | - | 221 W/m² | - |
| 1777354814 | 3.89° C | 81% | 1020.7 hPa | 0 mm | - | 218 W/m² | - |
| 1777354742 | 3.89° C | 81% | 1020.7 hPa | 0 mm | - | 209 W/m² | - |
| 1777354681 | 3.89° C | 81% | 1020.6 hPa | 0 mm | - | 193 W/m² | - |
| 1777354624 | 3.89° C | 81% | 1020.7 hPa | 0 mm | - | 169 W/m² | - |
| 1777354564 | 3.89° C | 81% | 1020.7 hPa | 0 mm | - | 163 W/m² | - |
| 1777354519 | 3.89° C | 81% | 1020.6 hPa | 0 mm | - | 151 W/m² | - |
| 1777354479 | 3.89° C | 82% | 1020.6 hPa | 0 mm | - | 142 W/m² | - |
| 1777354442 | 3.89° C | 82% | 1020.6 hPa | 0 mm | - | 134 W/m² | - |
| 1777354407 | 3.89° C | 82% | 1020.7 hPa | 0 mm | - | 132 W/m² | - |
| 1777354369 | 3.33° C | 82% | 1020.8 hPa | 0 mm | - | 134 W/m² | - |
| 1777354325 | 3.33° C | 82% | 1020.6 hPa | 0 mm | - | 127 W/m² | - |
| 1777354153 | 3.33° C | 82% | 1020.6 hPa | 0 mm | - | 114 W/m² | - |
| 1777354116 | 3.33° C | 83% | 1020.6 hPa | 0 mm | - | 109 W/m² | - |
| 1777354086 | 3.33° C | 82% | 1020.6 hPa | 0 mm | - | 90 W/m² | - |
* Rain latest hour (hover to see other rain measurements)
** Current wind speed in m/s (hover to see current wind gust speed)